THORAD AGENA D DEB

Satellite information

Favourite Embed

Satellite Type and Status

DEBRISIN ORBIT

Key statistics

Satellite THORAD AGENA D DEB at a glance.

Uptime

20529

Days in orbit

Revolutions

≈ 14.4

Per day

Orbit

LEO

Low Earth Orbit

Inclination

70.0

Latest

Satellite identification and parameters

Extended collection of information and parameters for THORAD AGENA D DEB.

Object identification

Identified? True

Debris? True

Object name: THORAD AGENA D DEB

International designator: 1969-082CG

Object number (NORAD): 4217

Object ID (CCSDS): 4217

Country: UNITED STATES OF AMERICA (US)

Current information (Y/N): Y

RCS size: MEDIUM

Orbital parameters

Period: 99.895 minutes

Inclination: 70.0373 deg

SMA: 7131.635 km

Apoapsis: 780.35 km

Periapsis: 726.65 km

RAAN: 220.429 deg

Eccentricy: 0.00376496

Argument of periapsis: 275.6293 deg

Mean anomaly: 84.0543 deg

Mean motion: 14.41514816 rev/day

Mean motion (dot): 0.00001785 rev/day2

B* drag term: 0.00056252223 1/REarth

Two-line elements (TLE)

Creation date: Dec. 12, 2025, 10:14 a.m.

Reference frame: TEME

Reference center: EARTH

Epoch: Dec. 12, 2025, 2:17 a.m. UTC

TLE line 0: 0 THORAD AGENA D DEB

TLE line 1: 1 04217U 69082CG 25346.09523302 .00001785 00000-0 56252-3 0 9997

TLE line 2: 2 04217 70.0373 220.4290 0037650 275.6293 84.0543 14.41514816920831

Live tracking on map

Real-time ground track for satellite THORAD AGENA D DEB.

In-orbit conjunctions

A list of the most updated potential collisions computed for object THORAD AGENA D DEB.

Target Orbit TCA Probability of collision Miss distance Type
SEASAT 1 SSO 2025-04-30 21:56:37 0.0001303807 426.0 (m) PAYLOAD
FENGYUN 1C DEB SSO 2024-11-12 23:59:32 0.0001104682 764.0 (m) DEBRIS

Associated space launch

Poppy was the follow-on ELINT system, which succeeded the Grab ELINT satellite system.

THORAD AGENA D DEB was lifted into orbit during the mission ‘Thorad SLV-2G Agena D | Poppy 8A,B,C,D’, on board a Thorad SLV-2G Agena D space rocket.

The launch took place on Sept. 30, 1969, 1:40 p.m. from Space Launch Complex 1W.

For more information about the launch, click the button.

Launch to space Thorad SLV-2G Agena D | Poppy 8A,B,C,D
Thorad SLV-2G Agena D | Poppy 8A,B,C,D

Agency: N/A

Status: Launch Successful

Launch date: Sept. 30, 1969, 1:40 p.m. UTC

Rocket: Thorad SLV-2G Agena D

Launch pad: Space Launch Complex 1W

Location: Vandenberg SFB, CA, USA

...

Latest news about this satellite

There are no fresh news available about this satellite. Check back as we update our databases every day.


Newsletter sign-up

Weekly statistics, charts and insights to help you stay on top of the space industry.